Time,TemperatureF,DewpointF,PressureIn,WindDirection,WindDirectionDegrees,WindSpeedMPH,WindSpeedGustMPH,Humidity,HourlyPrecipIn,Conditions,Clouds,dailyrainin,SoftwareType,DateUTC
2013-10-13 00:03:00,65.8,53.7,30.14,NNE,19,0.0,0.0,65,0.00,RA,,0.00,WeatherDisplay:10.37,2013-10-13 05:03:00,
2013-10-13 00:08:00,65.1,53.1,30.14,NNE,19,0.0,0.0,65,0.00,RA,,0.00,WeatherDisplay:10.37,2013-10-13 05:08:00,
2013-10-13 00:13:00,65.1,53.1,30.14,NNE,19,0.0,0.0,65,0.00,CLR,,0.00,WeatherDisplay:10.37,2013-10-13 05:13:00,
2013-10-13 00:18:00,65.1,53.5,30.14,NNE,19,0.0,0.0,66,0.00,CLR,,0.00,WeatherDisplay:10.37,2013-10-13 05:18:00,
2013-10-13 00:23:00,65.1,53.5,30.14,NNE,19,0.0,0.0,66,0.00,CLR,,0.00,WeatherDisplay:10.37,2013-10-13 05:23:00,
2013-10-13 00:28:00,65.1,53.5,30.14,NNE,19,0.0,0.0,66,0.00,CLR,,0.00,WeatherDisplay:10.37,2013-10-13 05:28:00,
2013-10-13 00:33:00,64.9,52.9,30.14,NNE,19,0.0,0.0,65,0.00,CLR,,0.00,WeatherDisplay:10.37,2013-10-13 05:33:00,
2013-10-13 00:38:00,64.8,52.7,30.14,NNE,19,0.0,0.0,65,0.00,CLR,,0.00,WeatherDisplay:10.37,2013-10-13 05:38:00,
2013-10-13 00:43:00,64.6,52.5,30.14,NNE,19,0.0,0.0,65,0.00,CLR,,0.00,WeatherDisplay:10.37,2013-10-13 05:43:00,
2013-10-13 00:48:00,64.4,52.4,30.14,NNE,19,0.0,0.0,65,0.00,CLR,,0.00,WeatherDisplay:10.37,2013-10-13 05:48:00,
2013-10-13 00:53:00,64.6,53.0,30.14,NNE,19,0.0,0.0,66,0.00,CLR,,0.00,WeatherDisplay:10.37,2013-10-13 05:53:00,
2013-10-13 00:58:00,64.2,52.2,30.14,NNE,19,0.0,0.0,65,0.00,CLR,,0.00,WeatherDisplay:10.37,2013-10-13 05:58:00,
2013-10-13 01:03:00,63.9,51.9,30.14,NNE,19,0.0,0.0,65,0.00,CLR,,0.00,WeatherDisplay:10.37,2013-10-13 06:03:00,
2013-10-13 01:08:00,63.9,52.3,30.14,NNE,19,0.0,0.0,66,0.00,CLR,,0.00,WeatherDisplay:10.37,2013-10-13 06:08:00,
2013-10-13 01:13:00,64.0,52.4,30.14,NNE,19,0.0,0.0,66,0.00,CLR,,0.00,WeatherDisplay:10.37,2013-10-13 06:13:00,
2013-10-13 01:18:00,64.0,52.4,30.14,NNE,19,0.0,0.0,66,0.00,CLR,,0.00,WeatherDisplay:10.37,2013-10-13 06:18:00,
2013-10-13 01:23:00,64.0,52.4,30.14,NNE,19,0.0,0.0,66,0.00,CLR,,0.00,WeatherDisplay:10.37,2013-10-13 06:23:00,
2013-10-13 01:28:00,64.0,52.9,30.17,North,10,0.0,2.3,67,0.00,CLR,,0.00,WeatherDisplay:10.37,2013-10-13 06:28:00,
2013-10-13 01:33:00,64.2,53.0,30.17,NNE,26,2.7,3.5,67,0.00,CLR,,0.00,WeatherDisplay:10.37,2013-10-13 06:33:00,
2013-10-13 01:38:00,64.8,53.9,30.17,North,3,0.0,3.5,68,0.00,CLR,,0.00,WeatherDisplay:10.37,2013-10-13 06:38:00,
2013-10-13 01:43:00,64.9,53.7,30.17,NNE,21,2.2,3.5,67,0.00,CLR,,0.00,WeatherDisplay:10.37,2013-10-13 06:43:00,
2013-10-13 01:48:00,64.9,53.3,30.17,North,7,0.0,2.3,66,0.00,CLR,,0.00,WeatherDisplay:10.37,2013-10-13 06:48:00,
2013-10-13 01:53:00,64.9,52.9,30.17,NNE,28,0.0,3.5,65,0.00,CLR,,0.00,WeatherDisplay:10.37,2013-10-13 06:53:00,
2013-10-13 01:58:00,64.8,52.3,30.17,NE,50,2.7,3.5,64,0.00,CLR,,0.00,WeatherDisplay:10.37,2013-10-13 06:58:00,
2013-10-13 02:03:00,64.8,51.9,30.17,NNE,15,2.2,2.3,63,0.00,CLR,,0.00,WeatherDisplay:10.37,2013-10-13 07:03:00,
2013-10-13 02:08:00,64.4,51.1,30.17,NNE,29,2.2,3.5,62,0.00,CLR,,0.00,WeatherDisplay:10.37,2013-10-13 07:08:00,
2013-10-13 02:13:00,64.2,50.9,30.17,NNE,18,2.2,3.5,62,0.00,CLR,,0.00,WeatherDisplay:10.37,2013-10-13 07:13:00,
2013-10-13 02:18:00,64.0,50.3,30.17,North,357,2.7,3.5,61,0.00,CLR,,0.00,WeatherDisplay:10.37,2013-10-13 07:18:00,
2013-10-13 02:23:00,63.9,50.1,30.17,NNE,18,2.2,2.3,61,0.00,CLR,,0.00,WeatherDisplay:10.37,2013-10-13 07:23:00,
2013-10-13 02:28:00,63.9,50.1,30.17,NNE,20,2.2,3.5,61,0.00,CLR,,0.00,WeatherDisplay:10.37,2013-10-13 07:28:00,
2013-10-13 02:33:00,63.7,49.5,30.17,North,8,2.2,3.5,60,0.00,CLR,,0.00,WeatherDisplay:10.37,2013-10-13 07:33:00,
2013-10-13 02:38:00,63.5,49.4,30.17,NNE,24,2.7,3.6,60,0.00,CLR,,0.00,WeatherDisplay:10.37,2013-10-13 07:38:00,
2013-10-13 02:43:00,63.1,48.6,30.17,NNE,29,2.7,3.5,59,0.00,CLR,,0.00,WeatherDisplay:10.37,2013-10-13 07:43:00,
2013-10-13 02:48:00,63.1,47.7,30.17,NNE,15,0.0,3.5,57,0.00,CLR,,0.00,WeatherDisplay:10.37,2013-10-13 07:48:00,
2013-10-13 02:53:00,63.1,47.7,30.17,North,10,2.2,3.5,57,0.00,CLR,,0.00,WeatherDisplay:10.37,2013-10-13 07:53:00,
2013-10-13 02:58:00,63.0,47.0,30.17,North,3,0.0,2.3,56,0.00,CLR,,0.00,WeatherDisplay:10.37,2013-10-13 07:58:00,
2013-10-13 03:03:00,62.8,46.8,30.17,North,11,2.2,3.5,56,0.00,CLR,,0.00,WeatherDisplay:10.37,2013-10-13 08:03:00,
2013-10-13 03:08:00,62.6,46.7,30.17,NNE,19,2.7,3.5,56,0.00,CLR,,0.00,WeatherDisplay:10.37,2013-10-13 08:08:00,
2013-10-13 03:13:00,62.6,46.2,30.17,NNE,19,2.2,3.5,55,0.00,CLR,,0.00,WeatherDisplay:10.37,2013-10-13 08:13:00,
2013-10-13 03:18:00,62.4,46.0,30.17,NNE,24,2.2,3.5,55,0.00,CLR,,0.00,WeatherDisplay:10.37,2013-10-13 08:18:00,
2013-10-13 03:23:00,62.4,45.5,30.17,North,11,2.2,2.3,54,0.00,CLR,,0.00,WeatherDisplay:10.37,2013-10-13 08:23:00,
2013-10-13 03:28:00,62.2,45.4,30.17,North,7,2.7,3.5,54,0.00,CLR,,0.00,WeatherDisplay:10.37,2013-10-13 08:28:00,
2013-10-13 03:33:00,62.1,45.2,30.17,NNE,18,2.2,2.3,54,0.00,CLR,,0.00,WeatherDisplay:10.37,2013-10-13 08:33:00,
2013-10-13 03:38:00,61.9,45.0,30.17,NNE,29,2.2,3.5,54,0.00,CLR,,0.00,WeatherDisplay:10.37,2013-10-13 08:38:00,
2013-10-13 03:43:00,61.7,44.4,30.17,NNE,23,2.2,2.3,53,0.00,CLR,,0.00,WeatherDisplay:10.37,2013-10-13 08:43:00,
2013-10-13 03:48:00,61.5,44.7,30.17,NNE,14,0.0,0.0,54,0.00,CLR,,0.00,WeatherDisplay:10.37,2013-10-13 08:48:00,
2013-10-13 03:53:00,61.5,44.7,30.17,NNE,24,0.0,0.0,54,0.00,CLR,,0.00,WeatherDisplay:10.37,2013-10-13 08:53:00,
2013-10-13 03:58:00,61.3,44.5,30.17,NNE,14,0.0,0.0,54,0.00,CLR,,0.00,WeatherDisplay:10.37,2013-10-13 08:58:00,
2013-10-13 04:03:00,61.2,44.4,30.17,NNE,15,2.2,3.5,54,0.00,CLR,,0.00,WeatherDisplay:10.37,2013-10-13 09:03:00,
2013-10-13 04:08:00,61.0,44.2,30.17,NNE,19,0.0,3.5,54,0.00,CLR,,0.00,WeatherDisplay:10.37,2013-10-13 09:08:00,
2013-10-13 04:13:00,60.8,44.0,30.17,North,6,2.7,3.5,54,0.00,CLR,,0.00,WeatherDisplay:10.37,2013-10-13 09:13:00,
2013-10-13 04:18:00,60.8,44.0,30.17,NNE,12,2.7,3.5,54,0.00,CLR,,0.00,WeatherDisplay:10.37,2013-10-13 09:18:00,
2013-10-13 04:23:00,60.6,43.9,30.17,North,357,2.2,3.5,54,0.00,CLR,,0.00,WeatherDisplay:10.37,2013-10-13 09:23:00,
2013-10-13 04:28:00,60.6,43.9,30.17,North,1,2.7,3.5,54,0.00,CLR,,0.00,WeatherDisplay:10.37,2013-10-13 09:28:00,
2013-10-13 04:33:00,60.4,43.2,30.17,North,11,2.7,3.5,53,0.00,CLR,,0.00,WeatherDisplay:10.37,2013-10-13 09:33:00,
2013-10-13 04:38:00,60.4,43.2,30.19,North,9,2.7,3.5,53,0.00,CLR,,0.00,WeatherDisplay:10.37,2013-10-13 09:38:00,
2013-10-13 04:43:00,60.4,42.7,30.19,NNE,16,3.1,3.5,52,0.00,CLR,,0.00,WeatherDisplay:10.37,2013-10-13 09:43:00,
2013-10-13 04:48:00,60.4,42.2,30.19,North,8,2.2,2.3,51,0.00,CLR,,0.00,WeatherDisplay:10.37,2013-10-13 09:48:00,
2013-10-13 04:53:00,60.3,42.0,30.19,North,7,2.2,3.5,51,0.00,CLR,,0.00,WeatherDisplay:10.37,2013-10-13 09:53:00,
2013-10-13 04:58:00,60.1,41.9,30.19,North,353,2.7,3.5,51,0.00,CLR,,0.00,WeatherDisplay:10.37,2013-10-13 09:58:00,
2013-10-13 05:03:00,60.1,41.9,30.19,NNE,25,2.7,3.5,51,0.00,CLR,,0.00,WeatherDisplay:10.37,2013-10-13 10:03:00,
2013-10-13 05:08:00,60.1,41.9,30.19,North,9,3.1,3.5,51,0.00,CLR,,0.00,WeatherDisplay:10.37,2013-10-13 10:08:00,
2013-10-13 05:13:00,59.9,41.7,30.19,North,10,2.7,3.5,51,0.00,CLR,,0.00,WeatherDisplay:10.37,2013-10-13 10:13:00,
2013-10-13 05:18:00,59.9,41.7,30.19,North,10,2.7,3.5,51,0.00,CLR,,0.00,WeatherDisplay:10.37,2013-10-13 10:18:00,
2013-10-13 05:23:00,59.9,41.2,30.19,NNE,15,2.7,3.5,50,0.00,CLR,,0.00,WeatherDisplay:10.37,2013-10-13 10:23:00,
2013-10-13 05:28:00,59.7,41.0,30.19,NNE,16,2.2,2.3,50,0.00,CLR,,0.00,WeatherDisplay:10.37,2013-10-13 10:28:00,
2013-10-13 05:33:00,59.5,40.9,30.19,NNE,16,2.2,3.5,50,0.00,CLR,,0.00,WeatherDisplay:10.37,2013-10-13 10:33:00,
2013-10-13 05:38:00,59.4,40.7,30.19,NNE,20,2.2,3.5,50,0.00,CLR,,0.00,WeatherDisplay:10.37,2013-10-13 10:38:00,
2013-10-13 05:43:00,59.4,40.7,30.19,NNE,16,2.2,3.5,50,0.00,CLR,,0.00,WeatherDisplay:10.37,2013-10-13 10:43:00,
2013-10-13 05:48:00,59.2,40.5,30.19,NNE,18,2.7,3.5,50,0.00,CLR,,0.00,WeatherDisplay:10.37,2013-10-13 10:48:00,
2013-10-13 05:53:00,59.2,40.5,30.19,NNE,18,2.7,3.5,50,0.00,CLR,,0.00,WeatherDisplay:10.37,2013-10-13 10:53:00,
2013-10-13 05:58:00,59.0,40.4,30.19,NNE,17,3.1,3.5,50,0.00,CLR,,0.00,WeatherDisplay:10.37,2013-10-13 10:58:00,
2013-10-13 06:03:00,59.0,40.4,30.19,NNE,18,2.7,3.5,50,0.00,CLR,,0.00,WeatherDisplay:10.37,2013-10-13 11:03:00,
2013-10-13 06:08:00,58.8,40.2,30.19,NNE,15,2.2,3.5,50,0.00,CLR,,0.00,WeatherDisplay:10.37,2013-10-13 11:08:00,
2013-10-13 06:13:00,58.8,40.2,30.19,NNE,29,3.1,3.5,50,0.00,CLR,,0.00,WeatherDisplay:10.37,2013-10-13 11:13:00,
2013-10-13 06:18:00,58.6,40.0,30.19,NNE,33,3.1,3.5,50,0.00,CLR,,0.00,WeatherDisplay:10.37,2013-10-13 11:18:00,
2013-10-13 06:23:00,58.6,40.0,30.19,North,0,2.2,3.5,50,0.00,CLR,,0.00,WeatherDisplay:10.37,2013-10-13 11:23:00,
2013-10-13 06:28:00,58.5,39.9,30.19,NNE,33,2.7,3.5,50,0.00,CLR,,0.00,WeatherDisplay:10.37,2013-10-13 11:28:00,
2013-10-13 06:33:00,58.5,39.9,30.19,North,11,2.2,3.5,50,0.00,CLR,,0.00,WeatherDisplay:10.37,2013-10-13 11:33:00,
2013-10-13 06:38:00,58.3,39.7,30.19,NNE,13,3.1,3.5,50,0.00,CLR,,0.00,WeatherDisplay:10.37,2013-10-13 11:38:00,
2013-10-13 06:43:00,58.1,39.5,30.19,NE,47,2.2,3.5,50,0.00,CLR,,0.00,WeatherDisplay:10.37,2013-10-13 11:43:00,
2013-10-13 06:48:00,58.1,38.5,30.22,NE,35,2.7,3.5,48,0.00,CLR,,0.00,WeatherDisplay:10.37,2013-10-13 11:48:00,
2013-10-13 06:53:00,58.1,38.5,30.22,NNE,15,2.2,2.3,48,0.00,CLR,,0.00,WeatherDisplay:10.37,2013-10-13 11:53:00,
2013-10-13 06:58:00,57.9,38.3,30.22,NNE,17,3.1,3.5,48,0.00,CLR,,0.00,WeatherDisplay:10.37,2013-10-13 11:58:00,
2013-10-13 07:03:00,57.9,38.3,30.22,NNE,18,3.6,4.6,48,0.00,CLR,,0.00,WeatherDisplay:10.37,2013-10-13 12:03:00,
2013-10-13 07:08:00,57.9,38.3,30.22,NNE,20,2.2,3.1,48,0.00,CLR,,0.00,WeatherDisplay:10.37,2013-10-13 12:08:00,
2013-10-13 07:13:00,57.7,38.2,30.22,NNE,13,2.2,3.5,48,0.00,CLR,,0.00,WeatherDisplay:10.37,2013-10-13 12:13:00,
2013-10-13 07:18:00,57.6,38.0,30.22,NNE,14,2.7,3.5,48,0.00,CLR,,0.00,WeatherDisplay:10.37,2013-10-13 12:18:00,
2013-10-13 07:23:00,57.6,38.0,30.22,NNE,14,2.2,3.5,48,0.00,CLR,,0.00,WeatherDisplay:10.37,2013-10-13 12:23:00,
2013-10-13 07:28:00,57.6,38.0,30.22,NNE,18,2.2,3.5,48,0.00,CLR,,0.00,WeatherDisplay:10.37,2013-10-13 12:28:00,
2013-10-13 07:33:00,57.4,37.8,30.22,North,357,2.2,2.3,48,0.00,CLR,,0.00,WeatherDisplay:10.37,2013-10-13 12:33:00,
2013-10-13 07:38:00,57.4,37.8,30.22,NNE,27,2.7,3.5,48,0.00,CLR,,0.00,WeatherDisplay:10.37,2013-10-13 12:38:00,
2013-10-13 07:43:00,57.4,37.8,30.22,North,11,3.1,3.5,48,0.00,CLR,,0.00,WeatherDisplay:10.37,2013-10-13 12:43:00,
2013-10-13 07:48:00,57.4,37.8,30.22,NNE,27,2.7,3.5,48,0.00,CLR,,0.00,WeatherDisplay:10.37,2013-10-13 12:48:00,
2013-10-13 07:53:00,57.4,37.8,30.22,NE,52,2.7,3.5,48,0.00,CLR,,0.00,WeatherDisplay:10.37,2013-10-13 12:53:00,
2013-10-13 07:58:00,57.4,37.8,30.22,North,4,2.2,3.5,48,0.00,CLR,,0.00,WeatherDisplay:10.37,2013-10-13 12:58:00,
2013-10-13 08:03:00,57.4,37.8,30.22,North,357,2.7,3.5,48,0.00,CLR,,0.00,WeatherDisplay:10.37,2013-10-13 13:03:00,
2013-10-13 08:08:00,57.6,38.0,30.22,NNE,17,2.2,3.5,48,0.00,CLR,,0.00,WeatherDisplay:10.37,2013-10-13 13:08:00,
2013-10-13 08:13:00,57.6,38.0,30.22,NNE,19,2.7,3.5,48,0.00,CLR,,0.00,WeatherDisplay:10.37,2013-10-13 13:13:00,
2013-10-13 08:18:00,57.6,36.4,30.22,NE,41,2.7,3.5,45,0.00,CLR,,0.00,WeatherDisplay:10.37,2013-10-13 13:18:00,
2013-10-13 08:23:00,57.7,36.5,30.22,NE,51,3.1,3.5,45,0.00,CLR,,0.00,WeatherDisplay:10.37,2013-10-13 13:23:00,
2013-10-13 08:28:00,57.9,36.7,30.25,NNE,22,3.1,3.5,45,0.00,CLR,,0.00,WeatherDisplay:10.37,2013-10-13 13:28:00,
2013-10-13 08:33:00,58.1,36.9,30.25,North,7,2.7,3.6,45,0.00,CLR,,0.00,WeatherDisplay:10.37,2013-10-13 13:33:00,
2013-10-13 08:38:00,58.3,37.0,30.28,NNE,12,3.1,3.5,45,0.00,CLR,,0.00,WeatherDisplay:10.37,2013-10-13 13:38:00,
2013-10-13 08:43:00,58.5,37.2,30.28,NNE,18,3.1,3.5,45,0.00,CLR,,0.00,WeatherDisplay:10.37,2013-10-13 13:43:00,
2013-10-13 08:48:00,58.6,37.3,30.28,NE,54,4.0,4.6,45,0.00,CLR,,0.00,WeatherDisplay:10.37,2013-10-13 13:48:00,
2013-10-13 08:53:00,58.8,37.5,30.28,North,5,3.6,4.6,45,0.00,CLR,,0.00,WeatherDisplay:10.37,2013-10-13 13:53:00,
2013-10-13 08:58:00,59.2,37.8,30.28,North,2,2.7,3.5,45,0.00,CLR,,0.00,WeatherDisplay:10.37,2013-10-13 13:58:00,
2013-10-13 09:03:00,59.5,38.2,30.28,North,6,4.0,5.8,45,0.00,CLR,,0.00,WeatherDisplay:10.37,2013-10-13 14:03:00,
2013-10-13 09:08:00,59.7,38.3,30.28,NE,52,3.6,3.6,45,0.00,CLR,,0.00,WeatherDisplay:10.37,2013-10-13 14:08:00,
2013-10-13 09:13:00,59.9,38.5,30.28,NNE,30,4.0,5.8,45,0.00,CLR,,0.00,WeatherDisplay:10.37,2013-10-13 14:13:00,
2013-10-13 09:18:00,60.1,38.7,30.28,North,0,4.5,5.8,45,0.00,CLR,,0.00,WeatherDisplay:10.37,2013-10-13 14:18:00,
2013-10-13 09:23:00,60.3,38.8,30.28,North,5,3.6,4.6,45,0.00,CLR,,0.00,WeatherDisplay:10.37,2013-10-13 14:23:00,
2013-10-13 09:28:00,60.6,39.1,30.28,NE,55,3.6,4.6,45,0.00,CLR,,0.00,WeatherDisplay:10.37,2013-10-13 14:28:00,
2013-10-13 09:33:00,60.8,39.3,30.31,North,10,3.1,3.5,45,0.00,CLR,,0.00,WeatherDisplay:10.37,2013-10-13 14:33:00,
2013-10-13 09:38:00,61.0,39.5,30.31,North,1,3.1,3.5,45,0.00,CLR,,0.00,WeatherDisplay:10.37,2013-10-13 14:38:00,
2013-10-13 09:43:00,61.3,39.8,30.31,North,353,4.0,4.0,45,0.00,CLR,,0.00,WeatherDisplay:10.37,2013-10-13 14:43:00,
2013-10-13 09:48:00,61.7,40.1,30.31,ENE,59,2.7,3.5,45,0.00,CLR,,0.00,WeatherDisplay:10.37,2013-10-13 14:48:00,
2013-10-13 09:53:00,61.9,40.3,30.31,ENE,63,3.6,3.6,45,0.00,CLR,,0.00,WeatherDisplay:10.37,2013-10-13 14:53:00,
2013-10-13 09:58:00,62.2,40.6,30.31,NNE,33,4.0,5.8,45,0.00,CLR,,0.00,WeatherDisplay:10.37,2013-10-13 14:58:00,
2013-10-13 10:03:00,62.6,40.4,30.31,NNE,14,4.0,4.0,44,0.00,CLR,,0.00,WeatherDisplay:10.37,2013-10-13 15:03:00,
2013-10-13 10:08:00,62.8,40.5,30.31,North,0,3.1,4.6,44,0.00,CLR,,0.00,WeatherDisplay:10.37,2013-10-13 15:08:00,
2013-10-13 10:13:00,63.1,40.9,30.31,NE,50,3.6,4.6,44,0.00,CLR,,0.00,WeatherDisplay:10.37,2013-10-13 15:13:00,
2013-10-13 10:18:00,63.5,41.2,30.31,North,4,3.6,4.6,44,0.00,CLR,,0.00,WeatherDisplay:10.37,2013-10-13 15:18:00,
2013-10-13 10:23:00,63.7,40.1,30.28,NE,42,4.5,5.8,42,0.00,CLR,,0.00,WeatherDisplay:10.37,2013-10-13 15:23:00,
2013-10-13 10:28:00,63.9,40.3,30.28,ENE,62,4.0,5.8,42,0.00,CLR,,0.00,WeatherDisplay:10.37,2013-10-13 15:28:00,
2013-10-13 10:33:00,64.2,41.8,30.28,NNE,14,3.6,5.4,44,0.00,CLR,,0.00,WeatherDisplay:10.37,2013-10-13 15:33:00,
2013-10-13 10:38:00,64.8,42.3,30.28,NE,45,2.7,3.5,44,0.00,CLR,,0.00,WeatherDisplay:10.37,2013-10-13 15:38:00,
2013-10-13 10:43:00,65.1,42.7,30.28,NNW,336,3.1,4.6,44,0.00,CLR,,0.00,WeatherDisplay:10.37,2013-10-13 15:43:00,
2013-10-13 10:48:00,65.5,41.1,30.28,NNE,24,3.6,3.6,41,0.00,CLR,,0.00,WeatherDisplay:10.37,2013-10-13 15:48:00,
2013-10-13 10:53:00,66.2,43.0,30.28,NNE,17,2.7,3.5,43,0.00,CLR,,0.00,WeatherDisplay:10.37,2013-10-13 15:53:00,
2013-10-13 10:58:00,66.9,42.4,30.28,NNE,14,4.0,5.8,41,0.00,CLR,,0.00,WeatherDisplay:10.37,2013-10-13 15:58:00,
2013-10-13 11:03:00,67.3,42.8,30.28,NE,45,4.0,5.8,41,0.00,CLR,,0.00,WeatherDisplay:10.37,2013-10-13 16:03:00,
2013-10-13 11:08:00,67.6,43.1,30.28,North,4,4.0,5.8,41,0.00,CLR,,0.00,WeatherDisplay:10.37,2013-10-13 16:08:00,
2013-10-13 11:13:00,68.2,43.6,30.28,NNE,14,3.1,3.5,41,0.00,CLR,,0.00,WeatherDisplay:10.37,2013-10-13 16:13:00,
2013-10-13 11:18:00,68.7,44.1,30.28,NNE,25,4.5,5.8,41,0.00,CLR,,0.00,WeatherDisplay:10.37,2013-10-13 16:18:00,
2013-10-13 11:23:00,68.9,44.2,30.28,NE,53,4.0,5.8,41,0.00,CLR,,0.00,WeatherDisplay:10.37,2013-10-13 16:23:00,
2013-10-13 11:28:00,69.1,44.4,30.28,ENE,59,3.1,5.8,41,0.00,CLR,,0.00,WeatherDisplay:10.37,2013-10-13 16:28:00,
2013-10-13 11:33:00,69.4,44.7,30.28,NNE,29,4.5,5.8,41,0.00,CLR,,0.00,WeatherDisplay:10.37,2013-10-13 16:33:00,
2013-10-13 11:38:00,70.0,44.5,30.28,North,0,2.7,3.5,40,0.00,CLR,,0.00,WeatherDisplay:10.37,2013-10-13 16:38:00,
2013-10-13 11:43:00,70.3,46.8,30.28,North,357,0.0,3.5,43,0.00,CLR,,0.00,WeatherDisplay:10.37,2013-10-13 16:43:00,
2013-10-13 11:48:00,70.3,44.9,30.28,ENE,62,3.6,3.6,40,0.00,CLR,,0.00,WeatherDisplay:10.37,2013-10-13 16:48:00,
2013-10-13 11:53:00,70.7,47.1,30.28,ENE,62,0.0,2.3,43,0.00,CLR,,0.00,WeatherDisplay:10.37,2013-10-13 16:53:00,
2013-10-13 14:05:00,72.9,48.4,30.28,North,0,0.0,6.9,42,0.00,CLR,,0.00,WeatherDisplay:10.37,2013-10-13 19:05:00,
2013-10-13 14:10:00,72.9,48.4,30.25,ENE,59,3.1,6.9,42,0.00,CLR,,0.00,WeatherDisplay:10.37,2013-10-13 19:10:00,
2013-10-13 14:15:00,72.9,48.4,30.25,NE,52,3.1,4.6,42,0.00,CLR,,0.00,WeatherDisplay:10.37,2013-10-13 19:15:00,
2013-10-13 14:20:00,73.0,48.6,30.25,NNE,17,3.6,3.6,42,0.00,CLR,,0.00,WeatherDisplay:10.37,2013-10-13 19:20:00,
2013-10-13 14:25:00,72.9,48.4,30.25,NE,39,2.7,3.5,42,0.00,CLR,,0.00,WeatherDisplay:10.37,2013-10-13 19:25:00,
2013-10-13 14:30:00,72.9,48.4,30.25,NNW,346,0.0,3.5,42,0.00,CLR,,0.00,WeatherDisplay:10.37,2013-10-13 19:30:00,
2013-10-13 14:35:00,73.0,48.6,30.25,ESE,115,0.0,2.3,42,0.00,CLR,,0.00,WeatherDisplay:10.37,2013-10-13 19:35:00,
2013-10-13 14:40:00,73.4,48.9,30.25,SSE,150,0.0,2.7,42,0.00,CLR,,0.00,WeatherDisplay:10.37,2013-10-13 19:40:00,
2013-10-13 14:45:00,73.6,49.1,30.22,North,353,0.0,3.1,42,0.00,CLR,,0.00,WeatherDisplay:10.37,2013-10-13 19:45:00,
2013-10-13 14:50:00,73.4,48.9,30.22,North,353,2.7,3.6,42,0.00,CLR,,0.00,WeatherDisplay:10.37,2013-10-13 19:50:00,
2013-10-13 14:55:00,73.0,48.6,30.22,South,182,0.0,0.0,42,0.00,CLR,,0.00,WeatherDisplay:10.37,2013-10-13 19:55:00,
2013-10-13 15:00:00,73.0,48.6,30.22,North,7,3.6,3.6,42,0.00,CLR,,0.00,WeatherDisplay:10.37,2013-10-13 20:00:00,
2013-10-13 15:05:00,73.2,48.7,30.22,ENE,61,0.0,3.5,42,0.00,CLR,,0.00,WeatherDisplay:10.37,2013-10-13 20:05:00,
2013-10-13 15:10:00,73.4,48.9,30.22,NE,48,3.6,3.6,42,0.00,CLR,,0.00,WeatherDisplay:10.37,2013-10-13 20:10:00,
2013-10-13 15:15:00,73.4,48.9,30.22,East,93,0.0,2.3,42,0.00,CLR,,0.00,WeatherDisplay:10.37,2013-10-13 20:15:00,
2013-10-13 15:20:00,73.4,48.9,30.22,NNE,18,0.0,4.0,42,0.00,CLR,,0.00,WeatherDisplay:10.37,2013-10-13 20:20:00,
2013-10-13 15:25:00,73.2,48.7,30.22,North,357,2.7,3.5,42,0.00,CLR,,0.00,WeatherDisplay:10.37,2013-10-13 20:25:00,
2013-10-13 15:30:00,73.2,48.7,30.22,NNE,14,3.1,3.6,42,0.00,CLR,,0.00,WeatherDisplay:10.37,2013-10-13 20:30:00,
2013-10-13 15:35:00,73.2,48.7,30.22,NNE,21,3.1,3.5,42,0.00,CLR,,0.00,WeatherDisplay:10.37,2013-10-13 20:35:00,
2013-10-13 15:40:00,73.4,48.9,30.22,North,357,2.7,3.5,42,0.00,CLR,,0.00,WeatherDisplay:10.37,2013-10-13 20:40:00,
2013-10-13 15:45:00,73.0,48.6,30.22,NNE,19,4.0,4.6,42,0.00,CLR,,0.00,WeatherDisplay:10.37,2013-10-13 20:45:00,
2013-10-13 15:50:00,72.9,48.4,30.22,ENE,64,3.1,3.5,42,0.00,CLR,,0.00,WeatherDisplay:10.37,2013-10-13 20:50:00,
2013-10-13 15:55:00,72.9,48.4,30.22,ENE,63,2.7,3.5,42,0.00,CLR,,0.00,WeatherDisplay:10.37,2013-10-13 20:55:00,
2013-10-13 16:00:00,73.0,48.6,30.22,ENE,62,0.0,2.3,42,0.00,CLR,,0.00,WeatherDisplay:10.37,2013-10-13 21:00:00,
2013-10-13 16:05:00,73.0,48.6,30.22,NNE,31,3.1,3.5,42,0.00,CLR,,0.00,WeatherDisplay:10.37,2013-10-13 21:05:00,
2013-10-13 16:10:00,72.9,48.4,30.22,North,8,3.1,4.0,42,0.00,CLR,,0.00,WeatherDisplay:10.37,2013-10-13 21:10:00,
2013-10-13 16:15:00,72.9,48.4,30.22,North,5,2.2,3.5,42,0.00,CLR,,0.00,WeatherDisplay:10.37,2013-10-13 21:15:00,
2013-10-13 16:20:00,72.9,48.4,30.22,NE,52,0.0,4.0,42,0.00,CLR,,0.00,WeatherDisplay:10.37,2013-10-13 21:20:00,
2013-10-13 16:25:00,72.7,48.3,30.22,NW,326,2.7,3.5,42,0.00,CLR,,0.00,WeatherDisplay:10.37,2013-10-13 21:25:00,
2013-10-13 16:30:00,72.7,48.3,30.22,NNE,18,0.0,0.0,42,0.00,CLR,,0.00,WeatherDisplay:10.37,2013-10-13 21:30:00,
2013-10-13 16:35:00,72.5,48.1,30.22,ENE,63,2.7,3.5,42,0.00,CLR,,0.00,WeatherDisplay:10.37,2013-10-13 21:35:00,
2013-10-13 16:40:00,72.5,48.1,30.22,NNE,24,0.0,0.0,42,0.00,CLR,,0.00,WeatherDisplay:10.37,2013-10-13 21:40:00,
2013-10-13 16:45:00,72.3,47.9,30.22,NNE,13,0.0,3.5,42,0.00,CLR,,0.00,WeatherDisplay:10.37,2013-10-13 21:45:00,
2013-10-13 16:50:00,72.3,47.9,30.22,NNE,30,2.7,3.5,42,0.00,CLR,,0.00,WeatherDisplay:10.37,2013-10-13 21:50:00,
2013-10-13 16:55:00,72.1,47.8,30.22,NNE,26,0.0,0.0,42,0.00,CLR,,0.00,WeatherDisplay:10.37,2013-10-13 21:55:00,
2013-10-13 17:00:00,72.0,47.6,30.22,North,10,2.7,3.5,42,0.00,CLR,,0.00,WeatherDisplay:10.37,2013-10-13 22:00:00,
2013-10-13 17:05:00,71.8,47.4,30.19,North,3,2.7,3.5,42,0.00,CLR,,0.00,WeatherDisplay:10.37,2013-10-13 22:05:00,
2013-10-13 17:10:00,71.6,46.0,30.19,North,6,2.2,3.5,40,0.00,CLR,,0.00,WeatherDisplay:10.37,2013-10-13 22:10:00,
2013-10-13 17:15:00,71.6,46.0,30.19,NNE,19,2.2,2.3,40,0.00,CLR,,0.00,WeatherDisplay:10.37,2013-10-13 22:15:00,
2013-10-13 17:20:00,71.4,45.8,30.22,NNE,17,0.0,0.0,40,0.00,CLR,,0.00,WeatherDisplay:10.37,2013-10-13 22:20:00,
2013-10-13 17:25:00,71.2,45.7,30.22,NE,41,2.7,3.5,40,0.00,CLR,,0.00,WeatherDisplay:10.37,2013-10-13 22:25:00,
2013-10-13 17:30:00,71.1,45.5,30.22,NNE,13,0.0,2.7,40,0.00,CLR,,0.00,WeatherDisplay:10.37,2013-10-13 22:30:00,
2013-10-13 17:35:00,70.9,45.3,30.22,NNE,13,0.0,0.0,40,0.00,CLR,,0.00,WeatherDisplay:10.37,2013-10-13 22:35:00,
2013-10-13 17:40:00,70.7,45.2,30.22,NNE,13,0.0,0.0,40,0.00,CLR,,0.00,WeatherDisplay:10.37,2013-10-13 22:40:00,
2013-10-13 17:45:00,70.3,44.9,30.22,NNE,13,0.0,0.0,40,0.00,CLR,,0.00,WeatherDisplay:10.37,2013-10-13 22:45:00,
2013-10-13 17:50:00,70.0,44.5,30.22,NNE,13,0.0,0.0,40,0.00,CLR,,0.00,WeatherDisplay:10.37,2013-10-13 22:50:00,
2013-10-13 17:55:00,69.6,44.9,30.22,NNE,13,0.0,0.0,41,0.00,CLR,,0.00,WeatherDisplay:10.37,2013-10-13 22:55:00,
2013-10-13 18:00:00,69.3,44.5,30.22,NNE,13,0.0,0.0,41,0.00,CLR,,0.00,WeatherDisplay:10.37,2013-10-13 23:00:00,
2013-10-13 18:05:00,68.7,44.1,30.22,NNE,13,0.0,0.0,41,0.00,CLR,,0.00,WeatherDisplay:10.37,2013-10-13 23:05:00,
2013-10-13 18:10:00,68.0,43.4,30.22,NNE,13,0.0,0.0,41,0.00,CLR,,0.00,WeatherDisplay:10.37,2013-10-13 23:10:00,
2013-10-13 18:15:00,67.5,42.9,30.22,NNE,13,0.0,0.0,41,0.00,CLR,,0.00,WeatherDisplay:10.37,2013-10-13 23:15:00,
2013-10-13 18:20:00,67.3,42.8,30.22,NNE,13,0.0,0.0,41,0.00,CLR,,0.00,WeatherDisplay:10.37,2013-10-13 23:20:00,
2013-10-13 18:25:00,66.9,42.4,30.22,NNE,13,0.0,0.0,41,0.00,CLR,,0.00,WeatherDisplay:10.37,2013-10-13 23:25:00,
2013-10-13 18:30:00,66.4,42.0,30.22,NNE,13,0.0,0.0,41,0.00,CLR,,0.00,WeatherDisplay:10.37,2013-10-13 23:30:00,
2013-10-13 18:35:00,65.7,41.3,30.22,NNE,13,0.0,0.0,41,0.00,CLR,,0.00,WeatherDisplay:10.37,2013-10-13 23:35:00,
2013-10-13 18:40:00,64.9,40.7,30.22,NNE,13,0.0,0.0,41,0.00,CLR,,0.00,WeatherDisplay:10.37,2013-10-13 23:40:00,
2013-10-13 18:45:00,64.8,40.5,30.22,NNE,13,0.0,0.0,41,0.00,CLR,,0.00,WeatherDisplay:10.37,2013-10-13 23:45:00,
2013-10-13 18:50:00,64.2,40.6,30.22,NNE,13,0.0,0.0,42,0.00,CLR,,0.00,WeatherDisplay:10.37,2013-10-13 23:50:00,
2013-10-13 18:55:00,63.7,40.1,30.22,NNE,13,0.0,0.0,42,0.00,CLR,,0.00,WeatherDisplay:10.37,2013-10-13 23:55:00,
2013-10-13 19:00:00,63.5,40.0,30.22,NNE,13,0.0,0.0,42,0.00,CLR,,0.00,WeatherDisplay:10.37,2013-10-14 00:00:00,
2013-10-13 19:05:00,63.7,40.1,30.22,NNE,13,0.0,0.0,42,0.00,CLR,,0.00,WeatherDisplay:10.37,2013-10-14 00:05:00,
2013-10-13 19:10:00,63.5,40.0,30.22,NNE,13,0.0,0.0,42,0.00,CLR,,0.00,WeatherDisplay:10.37,2013-10-14 00:10:00,
2013-10-13 19:15:00,63.5,40.0,30.22,NNE,13,0.0,0.0,42,0.00,CLR,,0.00,WeatherDisplay:10.37,2013-10-14 00:15:00,
2013-10-13 19:20:00,63.5,40.0,30.22,NNE,13,0.0,0.0,42,0.00,CLR,,0.00,WeatherDisplay:10.37,2013-10-14 00:20:00,
2013-10-13 19:25:00,63.5,40.0,30.22,NNE,13,0.0,0.0,42,0.00,CLR,,0.00,WeatherDisplay:10.37,2013-10-14 00:25:00,
2013-10-13 19:30:00,63.7,40.1,30.22,NNE,27,0.0,0.0,42,0.00,CLR,,0.00,WeatherDisplay:10.37,2013-10-14 00:30:00,
2013-10-13 19:35:00,63.9,40.3,30.22,North,0,0.0,0.0,42,0.00,CLR,,0.00,WeatherDisplay:10.37,2013-10-14 00:35:00,
2013-10-13 19:40:00,63.9,40.3,30.22,North,357,0.0,0.0,42,0.00,CLR,,0.00,WeatherDisplay:10.37,2013-10-14 00:40:00,
2013-10-13 19:45:00,63.9,40.3,30.22,North,357,0.0,0.0,42,0.00,CLR,,0.00,WeatherDisplay:10.37,2013-10-14 00:45:00,
2013-10-13 19:50:00,63.9,40.3,30.22,North,357,0.0,0.0,42,0.00,CLR,,0.00,WeatherDisplay:10.37,2013-10-14 00:50:00,
2013-10-13 19:55:00,63.7,40.1,30.22,North,357,0.0,0.0,42,0.00,CLR,,0.00,WeatherDisplay:10.37,2013-10-14 00:55:00,
2013-10-13 20:00:00,63.7,40.1,30.22,North,357,0.0,0.0,42,0.00,CLR,,0.00,WeatherDisplay:10.37,2013-10-14 01:00:00,
2013-10-13 20:05:00,63.3,39.8,30.22,North,357,0.0,0.0,42,0.00,CLR,,0.00,WeatherDisplay:10.37,2013-10-14 01:05:00,
2013-10-13 20:10:00,63.3,39.8,30.22,North,357,0.0,0.0,42,0.00,CLR,,0.00,WeatherDisplay:10.37,2013-10-14 01:10:00,
2013-10-13 20:15:00,63.3,39.8,30.22,North,357,0.0,0.0,42,0.00,CLR,,0.00,WeatherDisplay:10.37,2013-10-14 01:15:00,
2013-10-13 20:20:00,63.3,39.8,30.22,North,357,0.0,0.0,42,0.00,CLR,,0.00,WeatherDisplay:10.37,2013-10-14 01:20:00,
2013-10-13 20:25:00,63.3,39.8,30.22,North,7,2.2,2.3,42,0.00,CLR,,0.00,WeatherDisplay:10.37,2013-10-14 01:25:00,
2013-10-13 20:30:00,63.3,39.8,30.22,North,10,0.0,2.3,42,0.00,CLR,,0.00,WeatherDisplay:10.37,2013-10-14 01:30:00,
2013-10-13 20:35:00,63.1,39.7,30.22,North,10,0.0,0.0,42,0.00,CLR,,0.00,WeatherDisplay:10.37,2013-10-14 01:35:00,
2013-10-13 20:40:00,63.1,39.7,30.22,NNE,13,0.0,0.0,42,0.00,CLR,,0.00,WeatherDisplay:10.37,2013-10-14 01:40:00,
2013-10-13 20:45:00,63.0,39.5,30.22,NNE,18,0.0,0.0,42,0.00,CLR,,0.00,WeatherDisplay:10.37,2013-10-14 01:45:00,
2013-10-13 20:50:00,62.8,39.3,30.22,NNE,20,0.0,0.0,42,0.00,CLR,,0.00,WeatherDisplay:10.37,2013-10-14 01:50:00,
2013-10-13 20:55:00,62.6,39.2,30.22,NNE,19,0.0,0.0,42,0.00,CLR,,0.00,WeatherDisplay:10.37,2013-10-14 01:55:00,
2013-10-13 21:00:00,62.4,39.0,30.22,NNE,19,0.0,0.0,42,0.00,CLR,,0.00,WeatherDisplay:10.37,2013-10-14 02:00:00,
2013-10-13 21:05:00,62.2,38.8,30.22,NNE,22,0.0,0.0,42,0.00,CLR,,0.00,WeatherDisplay:10.37,2013-10-14 02:05:00,
2013-10-13 21:10:00,62.2,38.8,30.22,NNE,17,0.0,2.3,42,0.00,CLR,,0.00,WeatherDisplay:10.37,2013-10-14 02:10:00,
2013-10-13 21:15:00,62.1,38.7,30.22,NNE,24,0.0,0.0,42,0.00,CLR,,0.00,WeatherDisplay:10.37,2013-10-14 02:15:00,
2013-10-13 21:20:00,62.1,38.7,30.22,NNE,12,0.0,3.5,42,0.00,CLR,,0.00,WeatherDisplay:10.37,2013-10-14 02:20:00,
2013-10-13 21:25:00,61.9,38.5,30.22,NNE,29,0.0,2.2,42,0.00,CLR,,0.00,WeatherDisplay:10.37,2013-10-14 02:25:00,
2013-10-13 21:30:00,61.9,38.5,30.22,North,11,0.0,0.0,42,0.00,CLR,,0.00,WeatherDisplay:10.37,2013-10-14 02:30:00,
2013-10-13 21:35:00,61.9,38.5,30.25,North,11,0.0,0.0,42,0.00,CLR,,0.00,WeatherDisplay:10.37,2013-10-14 02:35:00,
2013-10-13 21:40:00,61.7,38.4,30.25,North,11,0.0,0.0,42,0.00,CLR,,0.00,WeatherDisplay:10.37,2013-10-14 02:40:00,
2013-10-13 21:45:00,61.5,40.0,30.25,North,11,0.0,0.0,45,0.00,CLR,,0.00,WeatherDisplay:10.37,2013-10-14 02:45:00,
2013-10-13 21:50:00,61.3,39.8,30.25,North,11,0.0,0.0,45,0.00,CLR,,0.00,WeatherDisplay:10.37,2013-10-14 02:50:00,
2013-10-13 21:55:00,61.2,39.6,30.25,North,11,0.0,0.0,45,0.00,CLR,,0.00,WeatherDisplay:10.37,2013-10-14 02:55:00,
2013-10-13 22:00:00,61.2,37.9,30.25,NNE,12,0.0,0.0,42,0.00,CLR,,0.00,WeatherDisplay:10.37,2013-10-14 03:00:00,
2013-10-13 22:05:00,61.2,37.9,30.25,NNE,22,2.2,2.3,42,0.00,CLR,,0.00,WeatherDisplay:10.37,2013-10-14 03:05:00,
2013-10-13 22:10:00,61.2,37.9,30.25,NE,36,0.0,0.0,42,0.00,CLR,,0.00,WeatherDisplay:10.37,2013-10-14 03:10:00,
2013-10-13 22:15:00,61.2,37.9,30.25,NNE,25,2.2,3.5,42,0.00,CLR,,0.00,WeatherDisplay:10.37,2013-10-14 03:15:00,
2013-10-13 22:20:00,61.2,37.9,30.25,NNE,21,0.0,3.5,42,0.00,CLR,,0.00,WeatherDisplay:10.37,2013-10-14 03:20:00,
2013-10-13 22:25:00,61.0,37.7,30.25,North,2,2.2,3.5,42,0.00,CLR,,0.00,WeatherDisplay:10.37,2013-10-14 03:25:00,
2013-10-13 22:30:00,61.0,37.7,30.25,North,5,2.7,3.6,42,0.00,CLR,,0.00,WeatherDisplay:10.37,2013-10-14 03:30:00,
2013-10-13 22:35:00,61.0,37.7,30.25,NNE,15,2.7,3.5,42,0.00,CLR,,0.00,WeatherDisplay:10.37,2013-10-14 03:35:00,
2013-10-13 22:40:00,60.8,37.5,30.25,NNE,21,2.7,3.5,42,0.00,CLR,,0.00,WeatherDisplay:10.37,2013-10-14 03:40:00,
2013-10-13 22:45:00,60.8,37.5,30.25,NE,41,2.2,2.3,42,0.00,CLR,,0.00,WeatherDisplay:10.37,2013-10-14 03:45:00,
2013-10-13 22:50:00,60.8,37.5,30.25,NNE,25,2.7,3.5,42,0.00,CLR,,0.00,WeatherDisplay:10.37,2013-10-14 03:50:00,
2013-10-13 22:55:00,60.8,37.5,30.25,North,3,0.0,2.3,42,0.00,CLR,,0.00,WeatherDisplay:10.37,2013-10-14 03:55:00,
2013-10-13 23:00:00,60.8,37.5,30.25,NE,41,3.1,3.5,42,0.00,CLR,,0.00,WeatherDisplay:10.37,2013-10-14 04:00:00,
2013-10-13 23:01:00,60.6,38.0,30.25,NE,41,3.1,3.5,43,0.00,CLR,,0.00,WeatherDisplay:10.37,2013-10-14 04:01:00,
2013-10-13 23:02:00,60.6,38.0,30.25,NE,49,2.2,3.5,43,0.00,CLR,,0.00,WeatherDisplay:10.37,2013-10-14 04:02:00,
2013-10-13 23:05:00,60.6,38.0,30.25,North,7,2.7,3.5,43,0.00,CLR,,0.00,WeatherDisplay:10.37,2013-10-14 04:05:00,
2013-10-13 23:10:00,60.6,38.0,30.25,NNE,27,0.0,2.3,43,0.00,CLR,,0.00,WeatherDisplay:10.37,2013-10-14 04:10:00,
2013-10-13 23:15:00,60.4,37.8,30.25,NE,42,2.7,2.7,43,0.00,CLR,,0.00,WeatherDisplay:10.37,2013-10-14 04:15:00,
2013-10-13 23:20:00,60.4,37.8,30.25,NE,55,2.7,3.5,43,0.00,CLR,,0.00,WeatherDisplay:10.37,2013-10-14 04:20:00,
2013-10-13 23:25:00,60.4,37.8,30.25,NE,47,2.2,3.5,43,0.00,CLR,,0.00,WeatherDisplay:10.37,2013-10-14 04:25:00,
2013-10-13 23:30:00,60.3,37.7,30.25,NNE,23,0.0,2.3,43,0.00,CLR,,0.00,WeatherDisplay:10.37,2013-10-14 04:30:00,
2013-10-13 23:35:00,60.1,37.5,30.25,NNE,30,2.2,3.5,43,0.00,CLR,,0.00,WeatherDisplay:10.37,2013-10-14 04:35:00,
2013-10-13 23:40:00,60.1,37.5,30.25,NE,40,2.2,3.6,43,0.00,CLR,,0.00,WeatherDisplay:10.37,2013-10-14 04:40:00,
2013-10-13 23:45:00,60.1,37.5,30.25,NE,50,2.7,3.5,43,0.00,CLR,,0.00,WeatherDisplay:10.37,2013-10-14 04:45:00,
2013-10-13 23:50:00,59.9,37.3,30.22,NE,38,0.0,2.3,43,0.00,CLR,,0.00,WeatherDisplay:10.37,2013-10-14 04:50:00,
2013-10-13 23:55:00,59.9,37.3,30.22,NNE,20,2.2,2.3,43,0.00,CLR,,0.00,WeatherDisplay:10.37,2013-10-14 04:55:00,